User: anonymous   Login
Location: Caltech
(34.1382°N, 118.1253°W)
Time: 14:25:29
(UTC-07:00)
Language:

Courier 1B - Orbit

View from above orbital plane
View from above orbital plane
View from above satellite
View from above satellite

Ground track
Ground track

The orbit data is extracted from the following two-line orbital elements,

1    58U 60013A   16236.69829594 +.00000093 +00000-0 +16013-4 0  9990
2    58 028.3282 325.4279 0165078 050.3566 311.1420 13.46304188750657
Epoch (UTC): 23 August 2016 16:45:32
Eccentricity: 0.0165078
inclination: 28.3282°
perigee height: 962 km
apogee height: 1209 km
right ascension of ascending node: 325.4279°
argument of perigee: 50.3566°
revolutions per day: 13.46304188
mean anomaly at epoch: 311.1420°
orbit number at epoch: 75065

The dashed part of the orbit path shows where the satellite is in the earth's shadow,  

DLR